Weather History for Fort Smith, AR

Change the Weather History Date:

Wednesday, March 27, 2013

  Actual Average Record
Temperature  
Mean Temperature 49 °F 56 °F  
Max Temperature 67 °F 68 °F 87 °F (1895)
Min Temperature 31 °F 44 °F 21 °F (1955)
Degree Days  
Heating Degree Days 16 10  
Month to date heating degree days 455 351  
Since 1 July heating degree days 2778 3024  
Cooling Degree Days 0 1  
Month to date cooling degree days 2 5  
Year to date cooling degree days 3 6  
Moisture  
Dew Point 26 °F    
Average Humidity 52    
Maximum Humidity 85    
Minimum Humidity 19    
Precipitation  
Precipitation 0.00 in 0.14 in 3.80 in (1898)
Month to date precipitation 2.53 3.30  
Year to date precipitation 10.96 8.87  
Sea Level Pressure  
Sea Level Pressure 30.27 in    
Wind  
Wind Speed 5 mph (ESE)    
Max Wind Speed 15 mph    
Max Gust Speed 22 mph    
Visibility 10 miles    
Events      
T = Trace of Precipitation, MM = Missing Value Source: NWS Daily Summary

Daily Weather History Graph

Daily Weather History Graph

Search for Another Location

Airport:

Trip Planner

Search our weather history database for the weather conditions in past years. The results will help you decide how hot, cold, wet, or windy it might be!

Date:

Astronomy

Mar. 27, 2013 Rise Set
Actual Time 7:10 AM CDT 7:35 PM CDT
Civil Twilight 6:45 AM CDT 8:00 PM CDT
Nautical Twilight 6:15 AM CDT 8:30 PM CDT
Astronomical Twilight 5:45 AM CDT 9:01 PM CDT
Moon 8:16 PM CDT 7:04 AM CDT
Length of Visible Light 13h 15m
Length of Day
12h 24m
Full, 100% of the Moon is Illuminated
Mar 27
Full
Apr 2
Last Quarter
Apr 10
New
Apr 18
First Quarter
Apr 25
Full

Hourly Weather History & Observations

Time (CDT) Temp. Windchill Dew Point Humidity Pressure Visibility Wind Dir Wind Speed Gust Speed Precip Events Conditions
12:53 AM 35.1 °F 32.2 °F 25.0 °F 67% 30.35 in 10.0 mi ENE 3.5 mph - N/A   Clear
1:53 AM 35.1 °F 31.0 °F 25.0 °F 67% 30.34 in 10.0 mi ENE 4.6 mph - N/A   Clear
2:53 AM 34.0 °F 31.0 °F 27.0 °F 75% 30.33 in 10.0 mi ENE 3.5 mph - N/A   Clear
3:53 AM 32.0 °F 27.5 °F 26.1 °F 79% 30.31 in 10.0 mi ENE 4.6 mph - N/A   Clear
4:53 AM 32.0 °F 27.5 °F 26.1 °F 79% 30.31 in 10.0 mi ENE 4.6 mph - N/A   Clear
5:53 AM 30.9 °F 26.2 °F 26.1 °F 82% 30.32 in 10.0 mi ENE 4.6 mph - N/A   Clear
6:53 AM 32.0 °F - 26.1 °F 79% 30.33 in 10.0 mi Calm Calm - N/A   Clear
7:53 AM 33.1 °F 30.0 °F 27.0 °F 78% 30.35 in 10.0 mi ENE 3.5 mph - N/A   Clear
8:53 AM 37.0 °F 30.4 °F 28.9 °F 73% 30.36 in 10.0 mi ENE 9.2 mph - N/A   Clear
9:53 AM 42.1 °F 37.7 °F 30.0 °F 62% 30.36 in 10.0 mi ENE 6.9 mph - N/A   Clear
10:53 AM 48.0 °F - 28.0 °F 46% 30.35 in 10.0 mi East 5.8 mph - N/A   Clear
11:53 AM 55.0 °F - 27.0 °F 34% 30.33 in 10.0 mi Variable 4.6 mph - N/A   Clear
12:53 PM 57.0 °F - 21.9 °F 26% 30.30 in 10.0 mi Calm Calm - N/A   Clear
1:53 PM 62.1 °F - 25.0 °F 24% 30.26 in 10.0 mi Variable 3.5 mph - N/A   Clear
2:53 PM 64.0 °F - 24.1 °F 22% 30.22 in 10.0 mi South 8.1 mph - N/A   Clear
3:53 PM 66.0 °F - 23.0 °F 20% 30.18 in 10.0 mi SE 5.8 mph - N/A   Clear
4:53 PM 66.9 °F - 23.0 °F 19% 30.16 in 10.0 mi SE 5.8 mph 17.3 mph N/A   Clear
5:53 PM 66.0 °F - 23.0 °F 20% 30.15 in 10.0 mi SSE 9.2 mph - N/A   Clear
6:53 PM 64.0 °F - 25.0 °F 23% 30.15 in 10.0 mi South 5.8 mph - N/A   Clear
7:53 PM 60.1 °F - 26.1 °F 27% 30.18 in 10.0 mi SSE 5.8 mph - N/A   Clear
8:53 PM 57.9 °F - 28.0 °F 32% 30.19 in 10.0 mi South 6.9 mph - N/A   Clear
9:53 PM 55.9 °F - 27.0 °F 33% 30.22 in 10.0 mi South 4.6 mph - N/A   Clear
10:53 PM 55.0 °F - 28.0 °F 35% 30.22 in 10.0 mi Calm Calm - N/A   Clear
11:53 PM 52.0 °F - 30.0 °F 43% 30.23 in 10.0 mi East 3.5 mph - N/A   Mostly Cloudy